Presure
166 158 159 155 162 162 165 162 164 178 177 169 161 193 188 179 165 179 172 171 182 182 182 173 175 172 175 181 220 202 193 192
169 158 162 166 172 165 170 167 204 183 177 189 172 159 176 169 174 176 172 193 176 185 192 170 167 187 182 185 219 202 201 187
157 165 168 172 174 187 175 168 163 162 165 172 171 171 171 162 177 182 185 186 191 186 196 177 178 192 191 187 204 193 203 196
170 160 170 185 187 190 192 102 177 172 128 168 172 163 158 172 184 184 195 190 203 197 191 198 192 181 191 200 201 207 186 200
174 180 190 185 183 181 163 166 174 83 170 178 152 176 180 179 198 203 196 193 218 198 214 203 200 207 193 203 193 196 187 191
178 213 204 190 245 235 214 222 196 218 208 81 203 190 194 221 213 199 199 220 205 216 198 208 188 213 195 200 196 195 184 198
231 195 235 221 226 234 225 232 171 208 208 189 121 172 77 204 208 225 202 197 191 200 204 204 201 208 191 202 196 200 195 189
217 199 210 225 192 200 225 138 177 187 212 178 193 167 214 202 181 205 211 219 221 203 192 209 214 204 215 202 201 204 188 199
210 191 226 182 182 183 182 65 193 202 205 180 222 200 222 199 209 203 219 214 220 207 219 245 224 201 206 175 191 200 198 208
212 207 212 194 192 99 203 202 203 232 228 222 194 183 201 191 188 181 178 180 193 207 200 209 205 209 226 235 213 199 201 193
216 187 203 239 199 184 182 199 229 204 196 200 199 216 203 204 203 197 171 177 198 190 205 206 208 203 216 204 207 205 208 195
203 199 199 195 192 200 198 224 199 227 236 220 204 206 222 229 227 224 221 227 221 225 222 228 216 228 216 203 208 212 207 206
206 205 205 199 204 237 257 245 237 240 244 237 229 235 233 248 234 231 239 245 250 246 247 239 227 232 220 220 209 210 208 204
211 205 193 222 250 251 246 240 241 236 230 226 229 233 140 214 244 247 245 248 252 246 246 240 242 238 235 227 223 231 219 216
222 237 233 252 263 255 259 251 249 242 233 215 260 247 243 239 244 247 249 249 251 253 256 268 274 271 273 282 285 258 238 234
227 236 259 260 254 265 256 257 249 249 263 260 252 210 250 253 256 115 253 259 265 283 297 299 289 305 296 293 298 301 301 290
253 265 256 269 266 257 252 250 255 258 259 259 259 252 260 269 271 271 280 298 269 268 321 369 353 403 404 410 413 328 281 319
275 267 265 261 253 252 254 253 260 263 260 267 249 227 271 270 266 269 296 324 331 380 351 350 361 369 355 374 385 395 437 329
264 265 263 255 252 254 254 263 265 263 262 190 286 95 256 273 286 326 308 330 377 356 327 332 330 327 324 326 387 376 381 372
Wind_Speed
94 91 95 96 98 100 102 97 99 102 102 101 98 96 93 91 91 95 89 90 89 84 80 79 75 75 73 67 58 58 56 53
96 92 95 100 103 99 102 103 92 95 99 91 101 97 101 95 96 97 95 93 90 92 86 81 81 79 77 72 59 57 59 56
94 100 102 102 100 99 103 99 98 98 99 103 103 105 101 97 98 98 92 92 89 90 87 82 83 81 75 75 61 59 61 62
97 94 100 111 103 104 94 41 98 98 73 102 106 102 100 104 106 99 94 93 91 88 86 84 83 81 77 68 66 64 63 67
108 106 112 102 102 101 92 93 98 34 107 108 86 108 113 109 107 98 92 92 82 87 76 80 77 70 74 68 70 70 66 68
104 106 107 103 83 79 86 85 92 87 94 32 105 102 109 98 101 97 95 87 85 82 76 73 79 70 74 70 72 74 74 75
94 92 87 91 86 76 72 66 63 85 89 79 46 77 28 100 97 92 90 88 86 82 82 80 79 76 77 72 74 76 78 78
95 89 92 88 82 83 81 52 72 87 85 86 87 93 92 92 94 90 88 87 85 85 86 82 80 76 79 78 76 80 78 84
93 91 87 87 85 86 89 23 85 87 90 90 87 87 86 87 89 91 85 85 85 88 85 83 82 82 78 77 84 76 80 82
91 90 90 86 89 40 94 91 89 89 89 85 88 91 91 96 94 94 94 94 89 88 91 89 87 85 82 81 85 83 83 85
90 81 89 89 89 92 93 97 87 97 95 94 94 93 91 93 93 91 93 92 92 97 96 93 94 93 89 87 86 88 87 86
86 91 93 95 97 98 100 90 95 92 87 94 97 99 98 97 99 102 103 106 105 102 101 104 97 97 94 92 91 89 91 89
93 96 100 99 104 96 87 89 92 92 90 90 93 93 94 91 98 100 100 96 97 105 107 109 106 106 98 100 95 94 94 92
96 96 96 101 95 91 89 89 89 92 94 95 97 96 50 84 94 96 98 99 101 107 109 111 113 113 110 106 106 109 103 104
106 103 102 96 88 83 81 83 84 89 93 83 87 89 92 96 98 98 99 101 102 102 101 102 103 105 107 110 109 114 114 113
115 109 103 91 88 81 80 80 81 85 84 84 86 77 92 92 95 49 101 103 103 102 100 101 101 98 99 102 104 102 101 101
112 101 93 86 79 80 81 82 82 82 83 84 87 88 91 94 92 96 99 100 93 91 91 76 88 55 54 60 69 91 92 88
93 92 89 84 82 83 83 85 84 83 83 85 82 73 86 86 87 89 90 88 83 44 51 55 49 47 48 50 53 54 53 80
90 89 86 86 85 85 86 87 86 83 84 64 86 38 83 86 85 73 77 69 48 43 50 50 43 37 43 45 41 40 48 56
Wind_Direction
292 293 293 292 294 294 293 297 298 295 295 294 294 293 294 297 297 300 297 298 300 299 299 297 297 296 296 297 282 281 281 283
289 292 292 293 293 294 295 294 296 295 295 291 294 292 296 296 297 298 299 298 297 299 297 294 295 299 296 296 279 281 274 281
286 290 289 289 290 288 289 291 292 292 292 292 292 292 292 292 295 295 296 295 293 294 292 292 292 295 293 295 290 286 274 273
288 287 288 291 288 291 287 287 289 287 290 287 288 288 291 291 296 295 294 294 293 291 291 289 289 291 293 286 283 277 284 272
288 288 288 286 286 284 282 283 285 288 285 285 286 288 290 293 291 291 292 292 285 288 280 284 284 278 287 277 281 277 284 275
289 287 286 286 285 285 285 279 283 275 274 290 279 283 286 279 287 288 290 281 286 280 283 274 285 270 280 275 274 276 283 273
290 286 289 290 289 283 283 277 281 281 282 281 286 283 308 284 284 276 286 285 285 283 278 275 275 272 276 267 272 267 270 276
293 290 292 291 287 288 287 291 287 281 276 281 283 287 275 280 284 282 279 275 273 277 281 273 267 271 260 269 266 262 273 265
287 287 286 284 284 283 283 280 284 283 281 277 270 278 272 278 277 278 275 276 273 277 272 272 264 271 264 284 274 260 262 263
286 286 288 283 284 282 289 286 283 288 288 280 263 267 265 272 271 276 280 282 281 275 278 273 272 267 261 258 258 263 261 265
288 281 289 291 285 277 278 286 284 284 282 280 279 276 276 276 277 272 279 279 278 269 274 272 270 272 267 266 263 263 263 267
290 285 289 289 284 285 283 283 279 279 275 277 281 281 277 274 275 275 275 272 276 274 273 270 273 270 267 268 266 267 267 268
289 287 286 286 286 289 285 283 281 280 278 278 277 275 273 273 271 271 271 270 268 268 269 267 269 268 272 270 274 274 272 273
286 286 283 286 287 285 283 283 282 281 280 280 279 279 275 277 275 274 272 271 271 268 268 269 269 267 267 269 269 265 268 268
292 292 291 289 286 284 281 278 277 276 275 274 276 274 274 275 274 274 273 274 275 275 276 276 273 270 269 269 267 264 264 263
293 294 292 289 289 284 281 279 276 276 277 275 274 275 274 275 274 279 273 275 275 277 277 274 273 271 268 267 265 265 263 262
292 291 290 289 286 285 285 282 281 281 279 280 278 276 279 280 280 280 282 283 280 280 281 280 277 276 274 272 268 261 260 260
290 288 288 288 286 285 284 284 284 284 282 281 278 280 279 280 281 283 285 287 288 284 277 277 284 283 276 273 264 262 258 251
286 286 286 285 285 284 284 286 286 285 284 285 285 290 283 285 287 285 286 291 290 276 276 279 277 278 275 274 266 252 256 237